Location: Newark
(45.9456°N, 15.4064°E)
Time: 20:10:18
(UTC+00:00)

SR - Pass Details

Date: 26 January 2020
Orbit: 575 x 881 km, 66.7° (Epoch: 19 February)

Event Time Altitude Azimuth Distance (km) Brightness Sun altitude
Rises 06:58:52 0° 316° (NW) 3,370 ? 3.8°
Reaches altitude 10° 07:01:53 10° 302° (WNW) 2,383 ? 4.3°
Maximum altitude 07:05:57 22° 254° (WSW) 1,641 ? 4.9°
Drops below altitude 10° 07:09:46 10° 205° (SSW) 2,219 ? 5.4°
Sets 07:12:29 0° 190° (S) 3,075 ? 5.8°
